Location: East Meadow
(40.7140°N, 73.5590°W)
Time: 19:36:52
(UTC+00:00)

Daily predictions for brighter satellites

Satellite Brightness Start Highest point End
(mag) Time Altitude Azimuth Time Altitude Azimuth Time Altitude Azimuth
H-2A R/B 2.7 23:44:17 10° SE 23:49:01 36° ENE 23:53:39 10° N
Meteor 2-15 4.4 23:43:32 10° S 23:49:31 70° E 23:55:33 10° NNE
FREGAT/IRIS 3.9 23:50:33 10° ESE 23:52:33 19° ENE 23:54:35 10° NNE
STARLINK-1119 3.6 23:48:26 10° NW 23:52:35 88° NNE 23:56:44 10° SE
SJ-6B 4.2 23:50:21 10° ESE 23:53:35 23° ENE 23:56:49 10° NNE
SL-14 R/B 3.7 23:49:53 10° NNW 23:53:54 68° W 23:57:50 10° S
